Showing default

MUSAT2, 59099

Orbit data source: Space-Track

MUSAT2, 59099 is a payload satellite owned by Muon Space (US) in SSO that was launched on Mon, 04 Mar 2024 UTC via an FALCON 9 launch vehicle from the Air Force Western Test Range (AFWTR). Payload-class satellites include a variety of spacecraft equipped with specific instruments for various scientific and technological missions. These include communications satellites like Starlink; space stations such as the ISS; scientific satellites like the Hubble; Earth observation satellites from companies like Planet Labs, Umbra, and HawkEye 360; GPS; miniature CubeSats for education and research; and military/defense satellites.

Loading next visibility...
Identifier
59099, 2024-043B
Orbit
SSO
Country
Flag of USUS
Related business
Manufacturer
Muon Space
Mission
Operational Commercial Imaging
Bus & Motor
MUON, Unknown motor
Mass
67 kg wet, 67 kg dry
Launch date (UTC)
2024-03-04 (2 years ago)
Launch vehicle
FALCON 9
Launch site
Air Force Western Test Range (AFWTR)
Object type
Payload
Rocket body
Debris
Shape & HBR
Box, 0.3 m
Radar Cross Section
0.195 m², Medium (>0.1 m² and < 1m²)

Expand to show TLE details & history
Last TLE update: 9 hours ago

TLE from 9 hours ago
0 MUSAT2
1 59099U 24043B   26130.17736870  .00004285  00000-0  28160-3 0  9995
2 59099  97.8554 267.9658 0008589 103.6560 256.5624 15.08132236119367
Epoch: 2026-05-10T04:15Z
TLE epoch observation values (Epoch: 2026-05-10T04:15:24.655Z)
Latitude
-0.00006°
Longitude
-23.87111°
Altitude
546.355 km
Speed
7.588 km/s
True Right ascension
17h 51m 51s
True Declination
0° 00' 00"
Sunlit
Object was in full shadow at epoch
Visualization orbit readout
Latitude
Unknown
Longitude
Unknown
Altitude
Unknown
Speed
Unknown
Apparent Right ascension
Unknown
Apparent Declination
Unknown
Sunlit
N/A
Visualization observer readout
Local Sidereal Time
21:27:16
Azimuth
Unknown
Elevation
Unknown
Doppler factor
Unknown
Orbital elements
Apogee altitude
544.85 km
Perigee altitude
532.968 km
Semi-major axis
6,917.046 km
Eccentricity
0.00086
Inclination
97.8554°
RAAN
267.9658°
Arg. of periapsis
103.656°
True anomaly
256.4667°
Mean anomaly
256.5624°
Eccentric anomaly
256.51455°
Mean motion
3.77279 °/min
Orbital period
95.42 mins
BSTAR
0.0002816
Loading maneuver chart data...
Computing Atmospheric mass density...
Loading historical data...
Loading historical data...
Loading historical data...
Loading historical data...
Loading historical data...
Loading historical data...
Loading historical data...

Documentation

Showing up to 5 results
|